User: anonymous   Login
Location: Bühlhof
(48.7849°N, 8.6361°E)
Time: 01:56:19
(UTC+00:00)
Language:

Cosmos 2082 Rocket - Orbit

View from above orbital plane
View from above orbital plane
View from above satellite
View from above satellite

Ground track
Ground track

The orbit is defined by the following mean orbital elements,

1 20625U          26070.81794512 +.00000000 +00000-0 -72637-4 0 00000
2 20625  70.9983 293.4449 0016215 296.7590  63.1873 14.15011690    07
Epoch (UTC): 11 March 2026 19:37:50
Eccentricity: 0.0016215
inclination: 70.9983°
perigee height: 831 km
apogee height: 854 km
right ascension of ascending node: 293.4449°
argument of perigee: 296.7590°
revolutions per day: 14.15011690
mean anomaly at epoch: 63.1873°

The dashed part of the orbit path shows where the satellite is in the earth's shadow,  

DLR